#timestamp,LO_Frequency,Hit,StdDev 
1621191615.6,286046999.8,N
1621191635.4,286047001.3,N
1621191655.2,286047002.4,N
1621191675.1,286047001.6,N
1621191676.0,286047001.6,N
1621191695.8,286047002.2,N
1621191715.6,286047003.8,N
1621191735.5,286047005.6,Y
1621191755.3,286047005.5,P
1621191775.2,286047004.8,N
1621191795.9,286047005.9,P
1621191815.7,286047006.0,Y
1621191835.6,286046998.4,P
1621191855.4,286046999.0,N
1621191875.2,286046994.9,N
1621191895.1,286046996.8,N
1621191896.0,286046996.8,N
1621191915.8,286046996.9,N
1621191935.7,286046999.5,N
1621191955.5,286047000.7,N
1621191975.3,286046998.2,N
1621191995.2,286046996.9,N
1621192015.0,286046999.1,N
1621192015.9,286046999.1,N
1621192035.8,286046998.7,N
1621192055.6,286046997.7,N
1621192075.4,286046998.6,N
1621192095.3,286047000.5,N
1621192115.1,286046999.1,N
1621192135.8,286046998.9,N
1621192155.7,286046998.4,N
1621192175.5,286047001.1,N
1621192195.3,286046998.1,N
1621192215.2,286047001.1,N
1621192235.0,286046999.2,N
1621192235.9,286046999.2,N
1621192255.8,286046998.5,N
1621192275.6,286047001.2,N
1621192295.4,286046999.6,N
1621192315.3,286046999.0,N
1621192335.1,286046995.0,N
1621192355.9,286046993.6,Y
1621192375.7,286046997.7,P
1621192395.5,286046996.7,P
1621192415.4,286046996.9,P
1621192435.2,286046997.7,N
1621192455.0,286046999.4,N
1621192455.9,286046999.4,N
1621192475.8,286046999.2,N
1621192495.6,286046999.3,N
1621192515.5,286046999.3,N
1621192535.3,286046998.1,N
1621192555.1,286046999.5,N
1621192575.9,286046998.3,N
1621192595.7,286047000.8,N
1621192615.5,286046998.2,N
1621192635.4,286046999.6,N
1621192655.2,286047000.6,N
1621192675.1,286046999.9,N
1621192676.0,286046999.9,N
1621192695.8,286047002.2,N
1621192715.6,286047002.0,N
1621192735.5,286047002.1,N
1621192755.3,286047000.9,N
1621192775.1,286047000.3,N
1621192795.9,286047002.4,N
1621192815.7,286047001.2,N
1621192835.6,286046998.3,N
1621192855.4,286046999.0,N
1621192875.2,286046999.3,N
1621192895.1,286046996.7,N
1621192896.0,286046996.7,N
1621192915.8,286046998.1,N
1621192935.6,286047002.6,N
1621192955.5,286047001.6,N
1621192975.3,286046999.7,N
1621192995.2,286047002.5,N
1621193015.9,286047002.5,N
1621193035.7,286047002.3,N
1621193055.6,286047000.7,N
1621193075.4,286046999.8,N
1621193095.2,286046999.9,N
1621193115.1,286046998.4,N
1621193116.0,286046998.4,N
1621193135.8,286046999.1,N
1621193155.7,286046999.2,N
1621193175.5,286047000.5,N
1621193195.3,286047002.4,N
1621193215.2,286047002.6,N
1621193235.9,286047000.3,N
1621193255.7,286047000.6,N
1621193275.6,286047000.8,N
1621193295.4,286046998.1,N
1621193315.3,286047001.0,N
1621193335.1,286047001.2,N
1621193336.0,286047001.2,N
1621193355.8,286047000.4,N
1621193375.7,286047000.7,N
1621193395.5,286047001.5,N
1621193415.3,286047002.3,N
1621193435.2,286047004.1,N
1621193455.0,286047003.8,N
1621193455.9,286047003.8,N
1621193475.8,286047004.3,N
1621193495.6,286047001.4,N
1621193515.4,286047003.2,N
1621193535.3,286047001.8,N
1621193555.1,286047000.3,N
1621193575.8,286047002.4,N
1621193595.7,286047002.3,N
1621193615.5,286047000.5,N
1621193635.3,286047002.0,N
1621193655.2,286047004.4,N
1621193675.0,286047002.8,N
1621193675.9,286047002.8,N
1621193695.8,286046998.8,N
1621193715.6,286046999.7,N
1621193735.4,286047002.1,N
1621193755.3,286047000.0,N
1621193775.1,286047002.5,N
1621193795.9,286047002.2,N
1621193815.7,286047001.6,N
1621193835.5,286047001.7,N
1621193855.4,286047002.0,N
1621193875.2,286047000.9,N
1621193895.0,286046998.3,N
1621193895.9,286046998.3,N
1621193915.8,286047001.6,N
1621193935.6,286047001.6,N
1621193955.5,286047001.6,N
1621193975.3,286046999.8,N
1621193995.1,286047001.4,N
1621194015.9,286047002.3,N
1621194035.7,286047002.5,N
1621194055.5,286046998.1,N
1621194075.4,286047000.7,N
1621194095.2,286046998.3,N
1621194115.1,286046997.3,N
1621194116.0,286046997.3,N
1621194135.8,286046999.0,N
1621194155.6,286046998.3,N
1621194175.5,286046998.5,N
1621194195.3,286046998.6,N
1621194215.1,286047000.7,N
1621194235.9,286046998.1,N
1621194255.7,286047000.4,N
1621194275.6,286047000.7,N
1621194295.4,286047000.2,N
1621194315.2,286046999.7,N
1621194335.1,286047000.5,N
1621194336.0,286047000.5,N
1621194355.8,286046998.2,N
1621194375.6,286046999.8,N
1621194395.5,286047000.0,N
1621194415.3,286047000.1,N
1621194435.1,286047002.7,N
1621194455.9,286047002.1,N
1621194475.7,286047002.6,N
1621194495.6,286047002.6,N
1621194515.4,286047000.3,N
1621194535.2,286047000.5,N
1621194555.1,286046998.1,N
1621194556.0,286046998.1,N
1621194575.8,286047000.6,N
1621194595.7,286047002.5,N
1621194615.5,286047001.9,N
1621194635.3,286047001.4,N
1621194655.2,286046999.9,N
1621194675.9,286046999.7,N
1621194695.7,286047002.4,N
1621194715.6,286047002.2,N
1621194735.4,286047001.8,N
1621194755.2,286047002.3,N
1621194775.1,286047002.7,N
1621194776.0,286047002.7,N
1621194795.8,286047000.4,N
1621194815.7,286047001.1,N
1621194835.5,286046999.6,N
1621194855.3,286047000.5,N
1621194875.2,286046998.8,N
1621194895.0,286046996.7,N
1621194895.9,286046996.7,N
1621194915.8,286046999.1,N
1621194935.6,286046997.2,N
1621194955.4,286046995.4,N
1621194975.3,286046995.0,N
1621194995.1,286046994.0,N
1621195015.8,286046994.3,N
1621195035.7,286046994.3,N
1621195055.5,286046994.0,N
1621195075.4,286046993.3,N
1621195095.2,286046995.7,N
1621195115.0,286046995.8,N
1621195115.9,286046995.8,N
1621195135.8,286046994.1,N
1621195155.6,286046994.0,N
1621195175.4,286046996.4,N
1621195195.3,286046994.3,N
